Location: Del Amo
(33.8464°N, 118.2104°W)
Time: 19:36:02
(UTC+00:00)

Vanguard 1 Rocket - Pass Details

Date: 16 September 2024
Orbit: 650 x 4218 km, 34.3° (Epoch: 04 October)

Event Time Altitude Azimuth Distance (km) Brightness Sun altitude
Rises 13:40:02 0° 271° (W) 6,147 - -0.3°
Exits shadow 13:40:06 - 271° (W) 6,133 10.9 -0.3°
Reaches altitude 10° 13:43:21 10° 272° (W) 5,504 10.7 0.4°
Maximum altitude 14:02:36 89° 4° (N) 3,909 10.7 4.4°
Drops below altitude 10° 14:29:27 10° 98° (E) 7,219 15.5 10.0°
Sets 14:34:38 0° 98° (E) 8,026 14.4 11.1°
